View from above orbital plane
|
View from above satellite
|
Ground track
|
The orbit data is extracted from the following two-line orbital elements,
1 35935U 09051E 21023.49947788 .00000094 00000-0 32830-4 0 9997
2 35935 98.6150 220.9097 0008077 178.3244 181.7980 14.55682196601688
Epoch (UTC): | 23 January 2021 11:59:14 |
Eccentricity: | 0.0008077 |
inclination: | 98.6150° |
perigee height: | 701 km |
apogee height: | 713 km |
right ascension of ascending node: | 220.9097° |
argument of perigee: | 178.3244° |
revolutions per day: | 14.55682196 |
mean anomaly at epoch: | 181.7980° |
orbit number at epoch: | 60168 |
The dashed part of the orbit path shows where the satellite is in the earth's shadow,
|
|